Location: Unspecified
(40.9447°N, 78.9903°W)
Time: 08:57:44
(UTC-04:00)

Cosmos 2058 - Pass Details

Date: 31 July 2021
Orbit: 560 x 584 km, 82.5° (Epoch: 16 September)

Event Time Altitude Azimuth Distance (km) Brightness Sun altitude
Rises 22:08:40 0° 233° (SW) 2,786 6.6 -15.9°
Reaches altitude 10° 22:11:55 10° 260° (W) 1,897 6.1 -16.4°
Maximum altitude 22:13:59 13° 290° (WNW) 1,690 6.3 -16.7°
Drops below altitude 10° 22:16:05 10° 320° (NW) 1,908 6.9 -17.0°
Sets 22:19:22 0° 348° (NNW) 2,816 7.4 -17.4°
